This is the latest recevied weather packets stored in our database for station/object EB5AGF-13. If no packets are shown the sender has not sent any weather packets the latest 10 day(s).
| Time | Temp. | Humidity | Pressure | Rain* | Wind** | Luminosity | Snow |
|---|---|---|---|---|---|---|---|
| 1777579629 | 18.89° C | 83% | 1013.3 hPa | 0 mm | 0.45 m/s, 267° | 0 W/m² | - |
| 1777579326 | 18.89° C | 83% | 1013.4 hPa | 0 mm | 0.45 m/s, 192° | 0 W/m² | - |
| 1777579021 | 18.89° C | 84% | 1013.3 hPa | 0 mm | 0.45 m/s, 241° | 0 W/m² | - |
| 1777578717 | 18.89° C | 84% | 1013.4 hPa | 0 mm | 0.45 m/s, 288° | 0 W/m² | - |
| 1777578414 | 18.89° C | 84% | 1013.4 hPa | 0 mm | 0.45 m/s, 269° | 0 W/m² | - |
| 1777578109 | 18.89° C | 84% | 1013 hPa | 0 mm | 0.45 m/s, 248° | 0 W/m² | - |
| 1777577793 | 18.89° C | 84% | 1013.1 hPa | 0 mm | 0.89 m/s, 203° | 0 W/m² | - |
| 1777577493 | 18.89° C | 84% | 1013.2 hPa | 0 mm | 0.45 m/s, 248° | 0 W/m² | - |
| 1777577193 | 18.89° C | 84% | 1013.3 hPa | 0 mm | 0.89 m/s, 211° | 0 W/m² | - |
| 1777576592 | 18.89° C | 83% | 1013.1 hPa | 0 mm | 0.89 m/s, 178° | 0 W/m² | - |
| 1777576292 | 19.44° C | 83% | 1012.8 hPa | 0 mm | 0.45 m/s, 244° | 0 W/m² | - |
| 1777575992 | 18.89° C | 83% | 1012.9 hPa | 0 mm | 0 m/s | 0 W/m² | - |
| 1777575693 | 18.89° C | 83% | 1012.9 hPa | 0 mm | 1.34 m/s, 167° | 1 W/m² | - |
| 1777575392 | 18.89° C | 83% | 1012.9 hPa | 0 mm | 0.89 m/s, 230° | 1 W/m² | - |
| 1777575092 | 18.89° C | 83% | 1012.7 hPa | 0 mm | 0.89 m/s, 192° | 2 W/m² | - |
| 1777574792 | 18.89° C | 83% | 1012.8 hPa | 0 mm | 1.79 m/s, 212° | 3 W/m² | - |
| 1777574493 | 18.89° C | 83% | 1012.8 hPa | 0 mm | 0.89 m/s, 198° | 5 W/m² | - |
| 1777574192 | 18.89° C | 83% | 1012.6 hPa | 0 mm | 1.34 m/s, 201° | 8 W/m² | - |
| 1777573892 | 18.89° C | 83% | 1012.4 hPa | 0 mm | 2.24 m/s, 222° | 10 W/m² | - |
| 1777573592 | 19.44° C | 83% | 1012.4 hPa | 0 mm | 0.89 m/s, 110° | 12 W/m² | - |
| 1777573293 | 19.44° C | 83% | 1012.4 hPa | 0 mm | 0.45 m/s, 172° | 14 W/m² | - |
| 1777572989 | 19.44° C | 83% | 1012.6 hPa | 0 mm | 0.45 m/s, 308° | 18 W/m² | - |
| 1777572685 | 19.44° C | 83% | 1012.6 hPa | 0 mm | 0.89 m/s, 322° | 23 W/m² | - |
| 1777572381 | 19.44° C | 83% | 1012.6 hPa | 0 mm | 0.89 m/s, 311° | 28 W/m² | - |
| 1777572077 | 20° C | 82% | 1012.5 hPa | 0 mm | 2.68 m/s, 191° | 36 W/m² | - |
* Rain latest hour (hover to see other rain measurements)
** Current wind speed in m/s (hover to see current wind gust speed)